Location: Red Rock Farm
(35.2100°N, 97.2200°W)
Time: 09:44:52
(UTC-05:00)

Daily predictions for brighter satellites

Satellite Brightness Start Highest point End
(mag) Time Altitude Azimuth Time Altitude Azimuth Time Altitude Azimuth
H-2A R/B (2) 4.3 20:22:31 10° SW 20:25:41 19° S 20:32:39 10° SE
OAO 3 Rocket 3.3 20:29:43 10° W 20:34:36 89° S 20:39:32 10° E
Cosmos 1825 3.6 20:32:22 10° NNE 20:35:17 21° ENE 20:38:12 10° SE
SJ-6B 3.2 20:34:16 10° S 20:38:10 70° WSW 20:42:13 10° NNW
Spot 2 Rocket 3.8 20:33:52 10° SSE 20:38:46 49° ENE 20:43:40 10° N
GENESIS II 4.2 20:37:45 10° SSW 20:41:46 72° ESE 20:45:49 10° NE
Cosmos 1400 Rocket 3.7 20:39:10 10° NNW 20:42:59 52° W 20:46:50 10° S
Cosmos 1354 Rocket 4.5 20:40:05 10° N 20:45:06 43° ENE 20:50:04 10° SE
ATLAS 5 CENTAUR R/B 3.8 20:43:46 10° N 20:48:26 23° NE 20:53:22 10° E
Cosmos 1408 3.4 20:47:17 10° NNE 20:50:38 32° E 20:53:55 10° SE
SL-16 R/B 2.2 20:46:56 10° SSW 20:52:35 82° ESE 20:58:17 10° NNE
Cosmos 1707 Rocket 4.1 20:49:26 10° SSW 20:53:50 65° W 20:58:13 10° N
CZ-2D R/B 3.3 20:51:05 10° SSE 20:54:55 62° ENE 20:58:46 10° N
Cosmos 2026 Rocket 4.2 20:49:47 10° N 20:55:48 50° E 21:01:41 10° SSE
Meteor 1-29 4.0 20:54:58 10° NE 20:57:54 25° E 21:00:49 10° SSE
Envisat 3.8 20:54:28 10° SE 20:58:57 33° ENE 21:03:27 10° N
Cosmos 1315 Rocket 3.3 20:56:26 10° NNW 21:00:27 65° W 21:04:24 10° S
H-II Stage 2 4.1 20:59:13 10° SSW 21:00:54 13° S 21:03:30 10° SSE
Cosmos 1733 Rocket 3.8 20:57:28 10° NNE 21:01:33 34° E 21:05:13 12° SE
USA 234 4.4 20:57:08 10° E 21:02:40 30° NNE 21:08:11 10° NNW
Meteor 2-20 Rocket 4.5 21:00:04 10° N 21:06:10 66° E 21:12:15 10° SSE
Cosmos 1933 3.8 21:02:36 10° SSE 21:06:21 38° E 21:10:06 10° NNE
Cosmos 1862 Rocket 3.9 21:03:14 10° SSE 21:07:29 46° E 21:11:47 10° NNE
Helios 1A 3.4 21:05:50 12° SE 21:09:34 46° ENE 21:13:39 10° N
SEDSat Delta rocket 3.6 21:07:00 10° WSW 21:11:55 58° S 21:16:15 17° ESE
USA 186 1.3 21:11:31 13° SSE 21:13:53 84° ENE 21:16:49 10° N
Cosmos 1634 Rocket 4.4 21:10:17 10° SSW 21:16:32 68° W 21:22:51 10° N
ERBS 3.4 21:13:59 10° NW 21:17:16 41° SW 21:19:55 14° SSE
CZ-4B DEB 3.4 21:16:48 25° ESE 21:17:54 34° ENE 21:20:41 10° N
YAOGAN 6 4.0 21:21:30 20° E 21:22:06 21° ENE 21:24:53 10° NNE
Resurs 1-3 4.3 21:19:03 10° S 21:23:19 54° W 21:27:38 10° NNW
ERS-1 Rocket 4.1 21:22:04 20° ESE 21:24:09 26° ENE 21:28:17 10° NNE
Cosmos 1862 3.3 21:22:18 10° N 21:26:20 65° E 21:29:04 19° SSE
Milstar 3 3.4 21:19:26 10° W 21:27:35 46° SSW 21:31:42 22° SE
Sakura Rocket 3.9 21:25:24 10° SW 21:28:38 27° SSE 21:29:28 25° SE
Cosmos 397 4.4 21:27:52 10° NNW 21:32:00 72° ENE 21:34:00 29° SE
Cosmos 2219 Rocket 4.1 21:37:34 12° ENE 21:37:34 12° ENE 21:38:19 10° ENE
Meteor 2-10 Rocket 3.8 21:31:13 10° S 21:36:56 61° E 21:42:38 10° NNE
Cosmos 1655 Rocket 4.0 21:32:17 10° N 21:38:42 89° W 21:45:02 10° S
Meteor 1-26 Rocket 4.4 21:33:58 12° SSE 21:39:02 53° E 21:44:39 10° NNE
Cosmos 1939 Rocket 2.8 21:40:33 30° SSE 21:42:29 76° ENE 21:46:29 10° N
Cosmos 2266 Rocket 4.5 21:38:40 10° N 21:44:37 42° E 21:47:08 30° SE
USA 229 DEB 3.6 21:38:58 10° SSW 21:45:43 73° ESE 21:52:36 10° NE
USA 229 3.6 21:39:05 10° SSW 21:45:50 72° ESE 21:52:43 10° NE
Cosmos 2221 Rocket 4.2 21:48:15 34° E 21:48:15 34° E 21:52:11 10° NNE
SPOT 5 4.1 21:50:39 24° ENE 21:50:52 24° ENE 21:54:35 10° NNE
Helios 1B rocket 4.0 21:54:58 10° N 21:58:44 35° WNW 22:02:28 10° SW
Lacrosse 4 Rocket 3.1 21:55:27 10° NW 21:59:17 30° WSW 22:02:01 16° SSW
Cosmos 2263 Rocket 2.3 21:54:10 10° NNW 21:59:43 71° WSW 22:02:38 29° S
Atlas Centaur 2 2.8 21:55:06 10° WSW 22:01:47 60° S 22:05:12 35° ESE
Resurs 01 Rocket 4.3 21:59:16 10° SW 22:02:10 17° W 22:05:04 10° NW
Cosmos 489 Rocket 4.4 21:56:28 10° NNW 22:02:51 77° ENE 22:05:35 37° SSE
Cosmos 2237 4.1 21:58:38 10° SSW 22:04:20 74° ESE 22:10:04 10° NNE
FALCON 9 R/B 2.8 22:08:00 10° W 22:08:45 18° W 22:08:45 18° W
COSMOS 2428 2.6 22:10:54 31° S 22:13:36 67° ESE 22:19:16 10° NNE
MOS 1-B Rocket 4.4 22:12:55 39° E 22:13:46 42° ENE 22:19:01 10° N
Cosmos 2360 Rocket 3.0 22:09:25 10° SW 22:14:54 51° WNW 22:20:25 10° N
OAO 3 Rocket 3.2 22:13:16 10° W 22:18:07 64° SSW 22:18:18 64° S
MetOp-B 4.1 22:20:21 59° ESE 22:21:01 66° ENE 22:26:20 10° N
Cosmos 1908 Rocket 3.8 22:17:22 10° NNW 22:21:41 64° W 22:22:17 56° SW
CZ-4C R/B 4.5 22:16:30 10° N 22:21:41 21° NE 22:24:27 17° ENE
Sich 1 Rocket 3.9 22:19:10 10° NNW 22:23:36 62° W 22:24:25 52° SW
Meteor 1-14 Rocket 4.2 22:19:57 10° N 22:25:40 89° ENE 22:27:02 55° S
NOAA 11 4.1 22:25:36 64° SE 22:26:25 77° ENE 22:31:55 10° N
Cosmos 968 Rocket 3.6 22:22:19 10° NNW 22:27:30 69° WSW 22:28:30 55° SSW
Meteor 1-25 Rocket 4.0 22:24:37 10° N 22:30:11 70° E 22:30:30 68° ESE
ATLAS 5 CENTAUR R/B 2.6 22:27:28 10° NW 22:33:36 68° WSW 22:35:10 51° S
Cosmos 1782 Rocket 3.8 22:31:49 10° N 22:35:39 67° NNW 22:35:39 67° NNW
USA 245 4.1 22:36:56 73° E 22:37:05 74° ENE 22:42:09 10° N
ARGOS 3.0 22:37:52 72° ENE 22:37:52 72° ENE 22:43:12 10° N
Terra 3.7 22:40:44 19° NE 22:40:44 19° NE 22:42:49 10° NNE
H-2A R/B 2.8 22:40:23 38° NE 22:40:23 38° NE 22:44:02 10° N
Cosmos 1867 3.7 22:36:13 10° NW 22:41:35 62° WSW 22:41:58 60° SW
Meteor 1-20 Rocket 4.1 22:36:35 10° N 22:42:13 80° E 22:42:16 80° E
USA 234 3.1 22:44:02 62° SSE 22:45:12 80° SW 22:51:46 10° NW
Okean 1-7 3.7 22:45:28 52° WNW 22:45:28 52° WNW 22:49:37 10° N
Okean 2 Rocket 3.8 22:43:58 10° N 22:47:27 53° NNW 22:47:27 53° NNW
Cosmos 2237 Rocket 3.8 22:55:50 22° NE 22:55:50 22° NE 22:57:57 10° NE
Meteor 2-6 Rocket 4.3 22:53:26 75° NE 22:53:26 75° NE 22:59:01 10° N
Cosmos 2333 Rocket 3.0 22:55:19 39° NE 22:55:19 39° NE 22:58:59 10° NNE
Cosmos 2278 Rocket 3.5 22:55:37 10° N 22:59:34 29° NE 22:59:34 29° NE
Cosmos 1844 Rocket 2.9 22:56:09 10° NNW 23:00:56 65° N 23:00:56 65° N
ERS-1 Rocket 4.4 23:02:03 29° WSW 23:02:46 30° W 23:07:09 10° NW
SeaSat 1 3.1 23:07:43 51° NNW 23:07:43 51° NNW 23:11:24 10° NNW
Cosmos 2219 Rocket 2.7 23:19:11 55° NW 23:19:11 55° NW 23:24:06 10° NNE
NOSS 3-1 (C) 4.2 23:29:42 40° W 23:31:01 46° NW 23:37:07 10° NNE
NOSS 3-1 (A) 4.2 23:47:48 47° NNW 23:47:48 47° NNW 23:53:18 10° NNE
ATLAS 2AS CENTAUR R/B 4.4 23:52:16 25° ENE 23:52:16 25° ENE 23:55:32 10° NE
Atlas Centaur 2 4.0 23:43:57 10° W 23:47:50 33° WSW 23:47:50 33° WSW
